Hilton Head Island, SC

9:01 AM EST on November 24, 2017 (GMT -0500)
Hilton Head

Weather History for KHXD - November, 2012

Change the Weather History Date:

Monday, November 5, 2012

  Actual Average Record
Temperature  
Mean Temperature 60 °F -  
Max Temperature 66 °F 70 °F 82 °F (1973)
Min Temperature 53 °F 50 °F 31 °F (1966)
Degree Days  
Heating Degree Days 6    
Growing Degree Days 10 (Base 50)    
Moisture  
Dew Point 53 °F    
Average Humidity 81    
Maximum Humidity 100    
Minimum Humidity 49    
Precipitation  
Precipitation 0.00 in - - ()
Sea Level Pressure  
Sea Level Pressure 30.00 in    
Wind  
Wind Speed 4 mph (North)    
Max Wind Speed 12 mph    
Max Gust Speed -    
Visibility 10 miles    
Events      
Averages and records for this station are not official NWS values.
T = Trace of Precipitation, MM = Missing Value Source: NWS Daily Summary

Daily Weather History Graph

Daily Weather History Graph

Search for Another Location

Airport or City:

Trip Planner

Search our weather history database for the weather conditions in past years. The results will help you decide how hot, cold, wet, or windy it might be!

Date:

Astronomy

Nov. 05, 2012 Rise Set
Actual Time 6:43 AM EST 5:28 PM EST
Civil Twilight 6:18 AM EST 5:54 PM EST
Nautical Twilight 5:48 AM EST 6:23 PM EST
Astronomical Twilight 5:20 AM EST 6:52 PM EST
Moon 11:04 PM EST (11/5) 12:01 PM EST (11/5)
Length of Visible Light 11h 36m
Length of Day
10h 45m
Waning Gibbous, 63% of the Moon is Illuminated
Nov 5
Waning Gibbous
Nov 6
Last Quarter
Nov 13
New
Nov 20
First Quarter
Nov 28
Full

Hourly Weather History & Observations

Time (EST) Temp. Dew Point Humidity Pressure Visibility Wind Dir Wind Speed Gust Speed Precip Events Conditions
12:15 AM 64.4 °F 62.6 °F 94% 29.94 in 10.0 mi West 3.5 mph - 0.00 in   Partly Cloudy
12:35 AM 66.2 °F 60.8 °F 83% 29.95 in 10.0 mi WNW 3.5 mph - 0.00 in   Partly Cloudy
12:55 AM 64.4 °F 60.8 °F 88% 29.94 in 10.0 mi Calm Calm - 0.00 in   Clear
1:15 AM 64.4 °F 59.0 °F 83% 29.95 in 10.0 mi NW 4.6 mph - 0.00 in   Clear
1:35 AM 64.4 °F 57.2 °F 77% 29.93 in 10.0 mi WNW 3.5 mph - 0.00 in   Clear
1:55 AM 64.4 °F 57.2 °F 77% 29.93 in 10.0 mi NW 3.5 mph - 0.00 in   Clear
2:15 AM 64.4 °F 57.2 °F 77% 29.94 in 10.0 mi NW 4.6 mph - 0.00 in   Clear
2:35 AM 62.6 °F 57.2 °F 82% 29.94 in 10.0 mi North 5.8 mph - 0.00 in   Clear
2:55 AM 62.6 °F 59.0 °F 88% 29.94 in 10.0 mi NNW 6.9 mph - 0.00 in   Clear
3:15 AM 62.6 °F 59.0 °F 88% 29.95 in 10.0 mi NNW 5.8 mph - 0.00 in   Clear
3:35 AM 60.8 °F 59.0 °F 94% 29.94 in 10.0 mi NNW 3.5 mph - 0.00 in   Clear
3:55 AM 60.8 °F 59.0 °F 94% 29.94 in 9.0 mi Calm Calm - 0.00 in   Clear
4:15 AM 60.8 °F 57.2 °F 88% 29.94 in 10.0 mi Calm Calm - 0.00 in   Clear
4:35 AM 59.0 °F 57.2 °F 94% 29.95 in 9.0 mi NNW 4.6 mph - 0.00 in   Clear
4:55 AM 59.0 °F 57.2 °F 94% 29.96 in 8.0 mi NNW 4.6 mph - 0.00 in   Clear
5:15 AM 57.2 °F 57.2 °F 100% 29.96 in 6.0 mi Calm Calm - 0.00 in   Clear
5:35 AM 57.2 °F 57.2 °F 100% 29.97 in 5.0 mi North 3.5 mph - 0.00 in   Scattered Clouds
7:50 AM 55.4 °F 55.4 °F 100% 30.02 in 3.0 mi North 8.1 mph - N/A   Overcast
9:10 AM 55.4 °F 51.8 °F 88% 30.04 in 10.0 mi NNE 11.5 mph - N/A   Mostly Cloudy
9:50 AM 57.2 °F 48.2 °F 72% 30.05 in 10.0 mi NE 9.2 mph - N/A   Clear
10:50 AM 57.2 °F 46.4 °F 67% 30.06 in 10.0 mi NNE 11.5 mph - N/A   Clear
11:55 AM 59.0 °F 44.6 °F 59% 30.05 in 10.0 mi NNE 8.1 mph - N/A   Clear
12:55 PM 60.8 °F 44.6 °F 55% 30.03 in 10.0 mi NNE 8.1 mph - N/A   Clear
1:50 PM 60.8 °F 44.6 °F 55% 30.02 in 10.0 mi North 8.1 mph - N/A   Clear
2:55 PM 64.4 °F 44.6 °F 49% 30.00 in 10.0 mi NNE 6.9 mph - N/A   Clear
3:50 PM 64.4 °F 44.6 °F 49% 30.00 in 10.0 mi NNE 6.9 mph - N/A   Clear
4:57 PM 59.0 °F 48.2 °F 67% 30.01 in 10.0 mi Calm Calm - N/A   Clear
5:57 PM 53.6 °F 48.2 °F 82% 30.02 in 10.0 mi Calm Calm - N/A   Clear
6:50 PM 53.6 °F 48.2 °F 82% 30.04 in 10.0 mi Calm Calm - N/A   Clear
7:50 PM 53.6 °F 51.8 °F 94% 30.05 in 10.0 mi Calm Calm - N/A   Clear
8:15 PM 53.6 °F 51.8 °F 94% 30.05 in 10.0 mi NE 3.5 mph - 0.00 in   Clear
8:35 PM 53.6 °F 51.8 °F 94% 30.05 in 10.0 mi NNE 3.5 mph - 0.00 in   Clear
8:50 PM 53.6 °F 51.8 °F 94% 30.05 in 10.0 mi Calm Calm - N/A   Clear
8:55 PM 53.6 °F 51.8 °F 94% 30.05 in 10.0 mi NNE 3.5 mph - 0.00 in   Clear
9:15 PM 53.6 °F 51.8 °F 94% 30.05 in 10.0 mi NE 4.6 mph - 0.00 in   Clear
9:35 PM 55.4 °F 50.0 °F 82% 30.04 in 10.0 mi NE 4.6 mph - 0.00 in   Clear
9:55 PM 57.2 °F 48.2 °F 72% 30.04 in 10.0 mi ENE 4.6 mph - 0.00 in   Clear
10:15 PM 57.2 °F 48.2 °F 72% 30.04 in 10.0 mi ENE 4.6 mph - 0.00 in   Clear
10:35 PM 59.0 °F 48.2 °F 67% 30.03 in 10.0 mi NE 3.5 mph - 0.00 in   Clear
10:55 PM 57.2 °F 48.2 °F 72% 30.04 in 10.0 mi NNE 3.5 mph - 0.00 in   Clear
11:15 PM 57.2 °F 50.0 °F 77% 30.03 in 10.0 mi NNE 4.6 mph - 0.00 in   Clear
11:35 PM 57.2 °F 48.2 °F 72% 30.02 in 10.0 mi NNE 5.8 mph - 0.00 in   Clear
11:55 PM 57.2 °F 50.0 °F 77% 30.02 in 10.0 mi NNE 4.6 mph - 0.00 in   Clear